Regional Weather Roundup
Issued by NWS Green Bay, WI

Home | Current Version | Previous Version | Graphics & Text | Print | Product List | Glossary Off
Versions: 1 2 3 4 5 6 7 8 9 10 11 12 13 14 15 16 17 18 19 20 21 22 23 24 25 26 27 28 29 30 31 32 33 34 35 36 37 38 39 40 41 42 43 44 45 46 47 48 49 50

000
ASUS43 KGRB 250859
RWRGRB

NORTH-CENTRAL AND NORTHEAST WISCONSIN REGIONAL WEATHER ROUNDUP
NATIONAL WEATHER SERVICE GREEN BAY WI
400 AM CDT SAT OCT 25 2014

WIZ005-009-010>012-018-019-251000-
NORTH CENTRAL WISCONSIN

CITY           SKY/WX    TMP DP  RH WIND       PRES   REMARKS
IRONWOOD       CLEAR     50  39  66 W10       29.76F
MANITOWISH WTR NOT AVBL
ARBOR VITAE    NOT AVBL
EAGLE RIVER    NOT AVBL
LAND O LAKES   NOT AVBL
RHINELANDER    CLEAR     49  46  90 W8        29.81F
PHILLIPS       NOT AVBL
ANTIGO         NOT AVBL
TOMAHAWK       NOT AVBL
MERRILL        NOT AVBL
$$

WIZ013-073-251000-
NORTHEAST WISCONSIN

CITY           SKY/WX    TMP DP  RH WIND       PRES   REMARKS
IRON MOUNTAIN  CLEAR     54  48  80 W12       29.72F
MARINETTE      CLEAR     54  48  82 W7        29.75S
$$

WIZ017-030-035>037-045-251000-
CENTRAL WISCONSIN

CITY           SKY/WX    TMP DP  RH WIND       PRES   REMARKS
MEDFORD        NOT AVBL
WAUSAU         PTCLDY    53  51  93 W10       29.82S
MOSINEE        NOT AVBL
MARSHFIELD     CLEAR     52  50  93 W8        29.86S FOG
WISC RAPIDS    CLEAR     54  52  93 W7        29.87F FOG
STEVENS POINT  NOT AVBL
WAUPACA        NOT AVBL
SHAWANO        NOT AVBL
CLINTONVILLE   NOT AVBL
$$

WIZ038-039-048-051-251000-
FOX VALLEY

CITY           SKY/WX    TMP DP  RH WIND       PRES   REMARKS
NWS GREEN BAY  PTCLDY    56  54  93 W14       29.80S FOG
APPLETON       NOT AVBL
OSHKOSH        CLOUDY    56  54  93 W7        29.83S FOG
FOND DU LAC    MOCLDY    56  53  90 W12       29.84F
$$

WIZ022-050-052-251000-
EAST CENTRAL WISCONSIN

CITY           SKY/WX    TMP DP  RH WIND       PRES   REMARKS
STURGEON BAY   CLEAR     54  50  87 SW12      29.78S
MANITOWOC      NOT AVBL
SHEBOYGAN      CLOUDY    56  53  90 W15G22    29.82S
$$

LMZ563-521-522-541>543-251000-
LAKESHORE

STATION/POSITION TIME  TEMP    WIND        PRES    VSBY  WAVE
                       AIR SEA DIR/SP/G                  HT/PER
                 (UTC) (F)     (DEG/KT/KT) (MB)    (MI)  (FT/S)
SHEBOYGAN LKSHOR 0800   55 52  250/  6/  7 1010.5S
KEWAUNEE LKSHORE 0800   55     270/  9/ 11 1007.7F
NORTHPORT PIER   0800   54     230/  6/ 12 1007.1F
N MID LAKE BUOY  0800   53 51  220/ 16/ 19 1007.0F         5/ 6
CHAMBERS ISLAND  0800   54     190/  6/ 12 1008.1F
MENOMINEE LKSHOR 0800   54     230/  9/ 11 1008.3F
$$



USA.gov is the U.S. government's official web portal to all federal, state and local government web resources and services.